This demonstration page uses our WeatherBlox Daily Observations layout. Learn more.

Left ArrowRight Arrow

40.92945, -100.16068

Hourly Observations for July 31, 2020

Temp ( °F °C ) Dew Point ( °F °C ) Humidity (%) Winds ( mph kmh ) Pressure ( in mb ) Visibility ( mi km ) Precip ( " mm )
12:15 am 00:15 Clear 61 16 60 15.3 96 96 N N/A 30.10 1019 10 16 N/A
12:35 am 00:35 Clear 61 16 60 15.5 97 97 N N/A 30.09 1019 10 16 N/A
12:55 am 00:55 Clear 61 16 60 15.5 97 97 W 3 6 30.10 1019 10 16 N/A
1:15 am 01:15 Clear 61 16.1 60 15.5 96 96 W 5 7 30.10 1019 10 16 N/A
1:35 am 01:35 Clear 62 16.4 60 15.5 94 94 WNW 5 7 30.09 1019 10 16 N/A
1:55 am 01:55 Clear 61 16.1 60 15.5 96 96 W 3 6 30.09 1019 10 16 N/A
2:15 am 02:15 Clear 60 15.8 59 15.2 96 96 W 5 7 30.09 1019 10 16 N/A
2:35 am 02:35 Clear 60 15.5 59 15 97 97 W 6 9 30.09 1019 10 16 N/A
2:55 am 02:55 Clear 60 15.7 59 15 96 96 WNW 6 9 30.09 1019 10 16 N/A
3:15 am 03:15 Clear 60 15.5 59 15 97 97 WNW 6 9 30.08 1019 10 16 N/A
3:35 am 03:35 Clear 60 15.5 59 14.8 96 96 WNW 6 9 30.08 1019 10 16 N/A
3:55 am 03:55 Clear 59 15.2 58 14.7 97 97 WNW 5 7 30.08 1019 10 16 N/A
4:15 am 04:15 Clear 59 14.8 58 14.3 97 97 N N/A 30.09 1019 10 16 N/A
4:35 am 04:35 Clear 58 14.7 58 14.2 97 97 NW 3 6 30.09 1019 10 16 N/A
4:55 am 04:55 Clear 58 14.2 57 13.8 97 97 N N/A 30.09 1019 7 11 N/A
5:15 am 05:15 Clear 57 14.1 56 13.6 97 97 NW 3 6 30.09 1019 10 16 N/A
5:35 am 05:35 Partly Cloudy 57 14 56 13.6 97 97 NW 7 11 30.09 1019 7 11 N/A
5:55 am 05:55 Partly Cloudy 58 14.2 56 13.6 96 96 WNW 5 7 30.09 1019 10 16 N/A
6:15 am 06:15 Clear 57 14.1 56 13.6 97 97 WNW 3 6 30.09 1019 10 16 N/A
6:35 am 06:35 Clear 57 14 56 13.5 97 97 WNW 5 7 30.10 1019 10 16 N/A
6:55 am 06:55 Sunny 57 14 56 13.5 97 97 WNW 6 9 30.10 1019 10 16 N/A
7:15 am 07:15 Sunny 58 14.4 57 13.8 96 96 WNW 6 9 30.11 1020 10 16 N/A
7:35 am 07:35 Sunny 59 15 57 14 94 94 WNW 5 7 30.10 1019 10 16 N/A
7:55 am 07:55 Sunny 60 15.5 58 14.5 94 94 W 5 7 30.10 1019 10 16 N/A
8:15 am 08:15 Sunny 62 16.5 59 15.1 92 92 WNW 5 7 30.09 1019 10 16 N/A
8:35 am 08:35 Sunny 63 17.3 60 15.8 91 91 WNW 3 6 30.09 1019 10 16 N/A
8:55 am 08:55 Sunny 64 17.8 61 16.2 90 90 NW 3 6 30.09 1019 10 16 N/A
9:15 am 09:15 Sunny 65 18.5 62 16.4 88 88 NNW 3 6 30.08 1019 10 16 N/A
9:35 am 09:35 Sunny 67 19.7 62 16.9 84 84 N N/A 30.06 1018 10 16 N/A
9:55 am 09:55 Sunny 69 20.5 62 16.5 78 78 N 3 6 30.06 1018 10 16 N/A
10:15 am 10:15 Sunny 70 21.1 62 16.5 75 75 N N/A 30.05 1018 10 16 N/A
10:35 am 10:35 Sunny 71 21.8 61 16.2 71 71 NNE 3 6 30.05 1017 10 16 N/A
10:55 am 10:55 Partly Cloudy 72 22.3 60 15.7 66 66 NW 3 6 30.04 1017 10 16 N/A
11:15 am 11:15 Mostly Cloudy 74 23.2 62 16.9 68 68 N 5 7 30.03 1017 10 16 N/A
11:35 am 11:35 Mostly Cloudy 74 23.2 63 17.1 69 69 W 6 9 30.03 1017 10 16 N/A
11:55 am 11:55 Mostly Cloudy 75 23.7 62 16.9 66 66 W 6 9 30.02 1017 10 16 N/A
12:15 pm 12:15 Partly Cloudy 74 23.6 61 16.1 63 63 N N/A 30.02 1017 10 16 N/A
12:35 pm 12:35 Partly Cloudy 75 24 61 16 61 61 N N/A 30.02 1017 10 16 N/A
12:55 pm 12:55 Sunny 76 24.6 62 16.8 62 62 WNW 3 6 30.01 1016 10 16 N/A
1:15 pm 13:15 Partly Cloudy 76 24.6 62 16.8 62 62 WSW 5 7 30.00 1016 10 16 N/A
1:30 pm 13:30 Partly Cloudy 76 24.7 60 15.5 57 57 NE 3 6 30.00 1016 10 16 N/A
1:55 pm 13:55 Sunny 77 25.2 61 16.2 58 58 WSW 3 6 29.99 1015 10 16 N/A
2:15 pm 14:15 Sunny 78 25.5 60 15.6 54 54 N N/A 29.99 1015 10 16 N/A
2:35 pm 14:35 Sunny 79 25.9 61 16 54 54 W 6 9 29.98 1015 10 16 N/A
2:55 pm 14:55 Sunny 80 26.6 62 16.4 54 54 N 5 7 29.97 1015 10 16 N/A
3:15 pm 15:15 Sunny 81 27 60 15.3 49 49 NW 5 7 29.96 1015 10 16 N/A
3:35 pm 15:35 Sunny 81 27.3 60 15.7 49 49 N 6 9 29.96 1015 10 16 N/A
3:55 pm 15:55 Sunny 81 27.2 60 15.7 49 49 NNE 5 7 29.95 1014 10 16 N/A
4:15 pm 16:15 Sunny 82 27.8 58 14.5 44 44 N 6 9 29.95 1014 10 16 N/A
4:35 pm 16:35 Sunny 82 28 58 14.7 44 44 NNE 6 9 29.93 1014 10 16 N/A
4:55 pm 16:55 Sunny 82 28 58 14.4 43 43 NNE 8 13 29.93 1014 10 16 N/A
5:15 pm 17:15 Sunny 82 28 57 13.9 42 42 NNE 6 9 29.93 1014 10 16 N/A
5:35 pm 17:35 Sunny 83 28.2 58 14.5 43 43 NNE 8 13 29.93 1014 10 16 N/A
5:55 pm 17:55 Sunny 82 28 59 15.2 46 46 NNE 8 13 29.93 1014 10 16 N/A
6:15 pm 18:15 Sunny 82 27.9 59 14.8 45 45 NE 7 11 29.93 1013 10 16 N/A
6:35 pm 18:35 Sunny 82 27.8 60 15.3 47 47 ENE 8 13 29.92 1013 10 16 N/A
6:55 pm 18:55 Sunny 82 27.5 59 15.1 47 47 ENE 7 11 29.91 1013 10 16 N/A
7:15 pm 19:15 Sunny 81 27.1 59 15.1 48 48 ENE 6 9 29.91 1013 10 16 N/A
7:35 pm 19:35 Sunny 80 26.6 60 15.8 52 52 E 6 9 29.92 1013 10 16 N/A
7:55 pm 19:55 Sunny 79 26.2 60 15.8 53 53 E 5 7 29.93 1014 10 16 N/A
8:15 pm 20:15 Sunny 77 25.1 61 16.2 58 58 E 6 9 29.93 1014 10 16 N/A
8:35 pm 20:35 Sunny 75 24.1 62 16.7 63 63 E 6 9 29.94 1014 10 16 N/A
8:55 pm 20:55 Sunny 74 23.2 62 16.8 67 67 E 7 11 29.95 1014 10 16 N/A
9:15 pm 21:15 Clear 73 22.6 62 16.7 69 69 E 5 7 29.96 1015 10 16 N/A
9:35 pm 21:35 Clear 71 21.7 62 16.7 73 73 ESE 3 6 29.98 1015 10 16 N/A
9:55 pm 21:55 Clear 71 21.7 62 16.8 74 74 SE 3 6 29.99 1015 10 16 N/A
10:15 pm 22:15 Clear 68 20.2 63 17.3 84 84 SSE 3 6 30.01 1016 10 16 N/A
10:35 pm 22:35 Clear 68 20.1 63 17.1 83 83 N N/A 30.02 1017 10 16 N/A
10:55 pm 22:55 Clear 67 19.2 63 17 87 87 N N/A 30.03 1017 10 16 N/A
11:15 pm 23:15 Clear 65 18.6 63 17 90 90 N N/A 30.03 1017 10 16 N/A
11:35 pm 23:35 Clear 64 17.6 62 16.6 94 94 N N/A 30.04 1017 10 16 N/A
11:55 pm 23:55 Clear 64 17.5 62 16.5 94 94 N N/A 30.04 1017 10 16 N/A

Powered by AerisWeather